ワイズ彗星

245P/WISE (2026)

English version
Home page
Updated on August 11, 2025

---------------------------------------------------------------------

・ プロフィール

・ 軌道要素

Epoch 2026 Mar. 21.0 TT = JDT 2461120.5                                         
T 2026 Mar. 31.12676 TT                                 Rudenko                 
q   2.2056447            (2000.0)            P               Q                  
n   0.12073243     Peri.  316.69820     +0.09044166     +0.96456884             
a   4.0543392      Node   316.66553     -0.78648234     -0.08349468             
e   0.4559792      Incl.   21.17118     -0.61095485     +0.25027104             
P   8.16                                                                        
From 92 observations 2002 Aug. 27-2018 Oct. 4, mean residual 0".6.              

・ 光度変化

        m1 = 14.7 + 5 logΔ + 10.0 log r

---------------------------------------------------------------------

軌道要素はM.P.E.C. 2020-P19に掲載されたものです。
光度グラフはComet for Windowsで作成したものです。

---------------------------------------------------------------------

Copyright(C) Seiichi Yoshida (comet@aerith.net). All rights reserved.